TimeMDT,TemperatureF,Dew PointF,Humidity,Sea Level PressureIn,VisibilityMPH,Wind Direction,Wind SpeedMPH,Gust SpeedMPH,PrecipitationIn,Events,Conditions,WindDirDegrees,DateUTC
12:53 AM,73.0,37.0,27,29.97,10.0,West,9.2,-,N/A,,Clear,280,2013-08-19 06:53:00
1:53 AM,70.0,37.0,30,29.98,10.0,Calm,Calm,-,N/A,,Clear,0,2013-08-19 07:53:00
2:53 AM,69.1,37.0,31,29.98,10.0,South,5.8,-,N/A,,Clear,180,2013-08-19 08:53:00
3:53 AM,68.0,36.0,31,29.98,10.0,SSW,3.5,-,N/A,,Clear,200,2013-08-19 09:53:00
4:53 AM,64.0,39.0,40,29.98,10.0,SSW,4.6,-,N/A,,Clear,200,2013-08-19 10:53:00
5:53 AM,64.0,39.9,41,29.99,10.0,SW,6.9,-,N/A,,Clear,230,2013-08-19 11:53:00
6:53 AM,57.0,42.1,57,30.01,10.0,NE,3.5,-,N/A,,Clear,40,2013-08-19 12:53:00
7:53 AM,61.0,41.0,48,30.02,10.0,Calm,Calm,-,N/A,,Clear,0,2013-08-19 13:53:00
8:53 AM,69.1,41.0,36,30.02,10.0,Calm,Calm,-,N/A,,Clear,0,2013-08-19 14:53:00
9:53 AM,73.9,42.1,32,30.01,10.0,ENE,3.5,-,N/A,,Clear,60,2013-08-19 15:53:00
10:53 AM,78.1,39.9,25,29.99,10.0,ENE,4.6,-,N/A,,Clear,60,2013-08-19 16:53:00
11:53 AM,82.0,41.0,23,29.96,10.0,ENE,6.9,-,N/A,,Clear,60,2013-08-19 17:53:00
12:53 PM,84.9,39.9,20,29.93,10.0,East,4.6,-,N/A,,Clear,90,2013-08-19 18:53:00
1:53 PM,89.1,39.0,17,29.90,10.0,ENE,4.6,-,N/A,,Clear,70,2013-08-19 19:53:00
2:53 PM,93.0,28.9,10,29.87,10.0,WNW,12.7,29.9,N/A,,Clear,290,2013-08-19 20:53:00
3:53 PM,93.9,33.1,12,29.85,10.0,WNW,17.3,26.5,N/A,,Clear,290,2013-08-19 21:53:00
4:53 PM,93.9,27.0,9,29.83,10.0,West,16.1,23.0,N/A,,Clear,270,2013-08-19 22:53:00
5:53 PM,93.0,27.0,9,29.83,10.0,WNW,16.1,-,N/A,,Clear,290,2013-08-19 23:53:00
6:53 PM,91.0,28.0,10,29.85,10.0,WNW,10.4,21.9,N/A,,Clear,290,2013-08-20 00:53:00
7:53 PM,86.0,34.0,16,29.86,10.0,NW,9.2,-,N/A,,Clear,310,2013-08-20 01:53:00
8:53 PM,82.0,35.1,18,29.87,9.0,Calm,Calm,-,N/A,,Clear,0,2013-08-20 02:53:00
9:53 PM,75.0,34.0,22,29.89,10.0,WSW,5.8,-,N/A,,Partly Cloudy,250,2013-08-20 03:53:00
10:53 PM,75.0,33.1,22,29.89,10.0,West,10.4,-,N/A,,Clear,260,2013-08-20 04:53:00
11:53 PM,72.0,35.1,26,29.90,10.0,West,4.6,-,N/A,,Clear,270,2013-08-20 05:53:00